(155165) = 2005 UU147 = 2007 CG35

Discovered at Kitt Peak on 2005-10-26 by Spacewatch.

Orbit

Orbit type: Main Belt

Note: WebGL enabled browser required.

epoch2024-03-31.0
epoch JD2460400.5
perihelion date2025-08-13.75307
perihelion JD2460901.25307
argument of perihelion (°)131.32817
ascending node (°)19.90111
inclination (°)3.98788
eccentricity0.0405623
perihelion distance (AU)2.6636421
Tisserand w.r.t. Jupiter3.3
ΔV w.r.t. Earth (km/sec)10.2
semimajor axis (AU)2.7762533
mean anomaly (°)253.30629
mean daily motion (°/day)0.21306650
aphelion distance (AU)2.889
period (years)4.63
P-vector [x]-0.87593391
P-vector [y]0.41924714
P-vector [z]0.23868729
Q-vector [x]-0.48184995
Q-vector [y]-0.78457391
Q-vector [z]-0.39021071
absolute magnitude15.82
phase slope0.15
uncertainty0
referenceMPEC 2024-C46
observations used686
oppositions18
arc length (days)11331
first opposition used1993
last opposition used2024
residual rms (arc-secs)0.75
perturbers coarse indicatorM-v
perturbers precise indicator003Ek
first observation date used1993-01-26.0
last observation date used2024-02-04.0
computer nameMPCLINUX
JD of orbit computation2456966.747318
perihelion JD uncertainty (days)2.5205E-04
argument of perihelion uncertainty (°)7.6586E-05
ascending node uncertainty (°)5.5624E-05
inclination uncertainty (°)4.9131E-06
eccentricity uncertainty 4.5599E-08
perihelion distance uncertainty (AU)1.2458E-07
Minimum Orbit Intersection Distances (in AU)
for orbit epoch: 2460200.5, reference: E2024-C46
Mercury2.27224
Venus1.94042
Earth1.66944
Mars0.99416
Jupiter2.08345
Saturn6.33501
Uranus15.7846
Neptune26.9942

Observations

701 total observations over interval: 1993 01 26.36015 – 2024 02 04.249125
These data are available for download (format description).

Date (UT) J2000 RA J2000 Dec Magn Location Ref
1993 01 26.36015 09 30 14.17 +20 50 23.5 19.2 V 691 – Steward Observatory, Kitt Peak-Spacewatch MPS 199499
1993 01 26.39508 09 30 12.23 +20 50 31.7   691 – Steward Observatory, Kitt Peak-Spacewatch MPS 199499
1993 01 26.42912 09 30 10.39 +20 50 40.4   691 – Steward Observatory, Kitt Peak-Spacewatch MPS 199499
2000 10 01.24695 00 47 02.44 +03 57 50.0 19.7   704 – Lincoln Laboratory ETS, New Mexico MPS 213623
2000 10 01.26207 00 47 01.66 +03 57 46.3 20.4   704 – Lincoln Laboratory ETS, New Mexico MPS 213623
2000 10 01.27717 00 47 00.85 +03 57 42.2 19.7   704 – Lincoln Laboratory ETS, New Mexico MPS 213623
2000 10 01.29747 00 46 59.77 +03 57 37.6 19.7   704 – Lincoln Laboratory ETS, New Mexico MPS 213623
2000 10 01.31856 00 46 58.68 +03 57 32.9 19.8   704 – Lincoln Laboratory ETS, New Mexico MPS 213623
2001 12 17.38036 07 54 41.01 +26 53 28.9 19.8   704 – Lincoln Laboratory ETS, New Mexico MPS 213623
2001 12 17.39663 07 54 40.41 +26 53 30.5 19.7   704 – Lincoln Laboratory ETS, New Mexico MPS 213623
2002 01 19.23011 07 24 35.60 +28 19 50.5 19.6   704 – Lincoln Laboratory ETS, New Mexico MPS 213623
2002 01 19.24522 07 24 34.68 +28 19 53.3 20.0   704 – Lincoln Laboratory ETS, New Mexico MPS 213623
2002 01 19.26035 07 24 33.86 +28 19 53.6 19.8   704 – Lincoln Laboratory ETS, New Mexico MPS 213623
2002 01 19.27547 07 24 32.88 +28 19 54.5 19.9   704 – Lincoln Laboratory ETS, New Mexico MPS 213623
2002 02 06.24143 07 09 15.52 +28 27 07.3 19.3   704 – Lincoln Laboratory ETS, New Mexico MPS 213623
2002 02 06.25647 07 09 14.82 +28 27 06.7 19.8   704 – Lincoln Laboratory ETS, New Mexico MPS 213623
2002 02 06.27142 07 09 14.24 +28 27 06.9 20.0   704 – Lincoln Laboratory ETS, New Mexico MPS 213623
2002 02 06.30160 07 09 13.01 +28 27 05.1 19.8   704 – Lincoln Laboratory ETS, New Mexico MPS 213623
2003 04 26.32473 14 24 24.19 -16 21 38.3 19.7 V 691 – Steward Observatory, Kitt Peak-Spacewatch MPS 199499
2003 04 26.35214 14 24 22.71 -16 21 34.0 20.0 V 691 – Steward Observatory, Kitt Peak-Spacewatch MPS 199499
2003 04 26.37903 14 24 21.19 -16 21 28.8 19.7 V 691 – Steward Observatory, Kitt Peak-Spacewatch MPS 199499
2003 05 03.27915 14 18 10.17 -16 00 55.8 19.8 V 691 – Steward Observatory, Kitt Peak-Spacewatch MPS 199499
2003 05 03.30728 14 18 08.69 -16 00 51.8 20.3 V 691 – Steward Observatory, Kitt Peak-Spacewatch MPS 199499
2003 05 03.33456 14 18 07.17 -16 00 46.2 19.7 V 691 – Steward Observatory, Kitt Peak-Spacewatch MPS 199499
2003 05 22.19992 14 03 23.41 -15 06 15.2 20.3 V 691 – Steward Observatory, Kitt Peak-Spacewatch MPS 199499
2003 05 22.22839 14 03 22.26 -15 06 10.9 20.4 V 691 – Steward Observatory, Kitt Peak-Spacewatch MPS 199499
2003 05 22.25634 14 03 21.16 -15 06 06.7 20.4 V 691 – Steward Observatory, Kitt Peak-Spacewatch MPS 199499
2003 06 05.18500 13 56 45.43 -14 40 20.0 21.1 V 691 – Steward Observatory, Kitt Peak-Spacewatch MPS 199499
2003 06 05.21171 13 56 44.91 -14 40 18.0 20.5 V 691 – Steward Observatory, Kitt Peak-Spacewatch MPS 199499
2003 06 05.23884 13 56 44.35 -14 40 16.2 20.8 V 691 – Steward Observatory, Kitt Peak-Spacewatch MPS 199499
2004 07 16.14040 21 35 08.37 -20 15 31.6 18.5 R 807 – Cerro Tololo Observatory, La Serena MPS 199499
2004 07 16.27606 21 35 02.91 -20 16 02.1   807 – Cerro Tololo Observatory, La Serena MPS 199499
2004 08 22.47531 21 04 09.00 -22 19 35.5 19.7 R E12 – Siding Spring Survey MPS 199499
2004 08 22.48568 21 04 08.44 -22 19 35.9 19.8 R E12 – Siding Spring Survey MPS 199499
2004 08 22.49603 21 04 07.95 -22 19 37.9 20.4 R E12 – Siding Spring Survey MPS 199499
2004 08 22.50635 21 04 07.46 -22 19 39.2 19.8 R E12 – Siding Spring Survey MPS 199499
2005 10 26.22247 03 09 11.35 +20 15 23.5 19.8 V 691 – Steward Observatory, Kitt Peak-Spacewatch MPS 147979
2005 10 26.23975 03 09 10.44 +20 15 21.8 19.8 V 691 – Steward Observatory, Kitt Peak-Spacewatch MPS 147979
2005 10 26.25717 03 09 09.54 +20 15 19.9 19.9 V 691 – Steward Observatory, Kitt Peak-Spacewatch MPS 147979
2005 10 27.25721 03 08 18.25 +20 13 32.9 19.9 V 691 – Steward Observatory, Kitt Peak-Spacewatch MPS 147979
2005 10 27.27464 03 08 17.33 +20 13 30.7 19.9 V 691 – Steward Observatory, Kitt Peak-Spacewatch MPS 147979
2005 10 27.29199 03 08 16.41 +20 13 29.0 19.8 V 691 – Steward Observatory, Kitt Peak-Spacewatch MPS 147979
2005 11 07.27313 02 58 13.40 +19 48 36.2 19.7   704 – Lincoln Laboratory ETS, New Mexico MPS 152260
2005 11 07.28534 02 58 12.66 +19 48 34.2 19.4   704 – Lincoln Laboratory ETS, New Mexico MPS 152260
2005 11 07.29756 02 58 11.98 +19 48 32.4 19.5   704 – Lincoln Laboratory ETS, New Mexico MPS 152260
2005 11 07.30977 02 58 11.29 +19 48 30.5 19.5   704 – Lincoln Laboratory ETS, New Mexico MPS 152260
2005 11 10.18067 02 55 28.37 +19 40 44.4 19.5 V 691 – Steward Observatory, Kitt Peak-Spacewatch MPS 152260
2005 11 10.20658 02 55 26.88 +19 40 40.4 19.6 V 691 – Steward Observatory, Kitt Peak-Spacewatch MPS 152260
2005 11 10.22392 02 55 26.00 +19 40 37.2 19.4 V 691 – Steward Observatory, Kitt Peak-Spacewatch MPS 152260
2007 01 17.46265 10 45 09.18 +13 06 24.4 20.5 V 691 – Steward Observatory, Kitt Peak-Spacewatch MPS 199499
2007 01 17.48023 10 45 08.83 +13 06 27.3 20.4 V 691 – Steward Observatory, Kitt Peak-Spacewatch MPS 199499
2007 01 17.49782 10 45 08.49 +13 06 29.9 20.4 V 691 – Steward Observatory, Kitt Peak-Spacewatch MPS 199499
2007 02 06.39871 10 34 09.69 +14 16 33.1   691 – Steward Observatory, Kitt Peak-Spacewatch MPS 199578
2007 02 06.40115 10 34 09.54 +14 16 34.5   691 – Steward Observatory, Kitt Peak-Spacewatch MPS 199578
2007 02 06.41750 10 34 08.74 +14 16 38.6   691 – Steward Observatory, Kitt Peak-Spacewatch MPS 199578
2007 02 06.42043 10 34 08.61 +14 16 39.3   691 – Steward Observatory, Kitt Peak-Spacewatch MPS 199578
2007 02 06.43678 10 34 07.84 +14 16 43.3   691 – Steward Observatory, Kitt Peak-Spacewatch MPS 199578
2007 02 06.43921 10 34 07.73 +14 16 44.1   691 – Steward Observatory, Kitt Peak-Spacewatch MPS 199578
2007 02 08.42395 10 32 35.05 +14 25 09.8 19.4 R 644 – Palomar Mountain/NEAT MPS 199578
2007 02 08.44556 10 32 34.02 +14 25 15.5 19.1 R 644 – Palomar Mountain/NEAT MPS 199578
2007 02 08.46590 10 32 33.01 +14 25 20.5 18.7 R 644 – Palomar Mountain/NEAT MPS 199578
2007 02 16.31326 10 25 55.63 +14 59 02.4 19.7 V 703 – Catalina Sky Survey MPS 199499
2007 02 16.32248 10 25 55.16 +14 59 05.0 19.1 V 703 – Catalina Sky Survey MPS 199499
2007 02 16.33168 10 25 54.69 +14 59 07.5 19.1 V 703 – Catalina Sky Survey MPS 199499
2007 02 16.34088 10 25 54.12 +14 59 10.2 19.1 V 703 – Catalina Sky Survey MPS 199499
2007 02 16.42039 10 25 49.79 +14 59 30.8 18.7 R 644 – Palomar Mountain/NEAT MPS 200405
2007 02 16.44198 10 25 48.62 +14 59 36.5 18.5 R 644 – Palomar Mountain/NEAT MPS 200405
2007 02 16.46224 10 25 47.51 +14 59 41.1 18.9 R 644 – Palomar Mountain/NEAT MPS 200405
2007 02 19.18475 10 23 22.05 +15 11 07.2   691 – Steward Observatory, Kitt Peak-Spacewatch MPS 200405
2007 02 19.20311 10 23 21.07 +15 11 11.1   691 – Steward Observatory, Kitt Peak-Spacewatch MPS 200405
2007 02 19.24253 10 23 18.88 +15 11 21.3   691 – Steward Observatory, Kitt Peak-Spacewatch MPS 200405
2007 02 23.16880 10 19 45.96 +15 27 08.5 19.7 V 691 – Steward Observatory, Kitt Peak-Spacewatch MPS 201537
2007 02 23.18988 10 19 44.79 +15 27 13.6 19.5 V 691 – Steward Observatory, Kitt Peak-Spacewatch MPS 201537
2007 02 23.21444 10 19 43.41 +15 27 19.5 19.6 V 691 – Steward Observatory, Kitt Peak-Spacewatch MPS 201537
2007 03 08.20903 10 08 25.84 +16 09 57.2 19.2 R 644 – Palomar Mountain/NEAT MPS 206760
2007 03 08.23353 10 08 24.61 +16 10 00.9 19.1 R 644 – Palomar Mountain/NEAT MPS 206760
2007 03 08.25486 10 08 23.55 +16 10 04.2 19.0 R 644 – Palomar Mountain/NEAT MPS 206760
2007 03 09.33308 10 07 31.87 +16 12 45.5 19.7 V 703 – Catalina Sky Survey MPS 202363
2007 03 09.33802 10 07 31.62 +16 12 46.4 19.2 V 703 – Catalina Sky Survey MPS 202363
2007 03 09.34297 10 07 31.40 +16 12 46.7 19.6 V 703 – Catalina Sky Survey MPS 202363
2007 03 09.34784 10 07 31.11 +16 12 46.7 19.6 V 703 – Catalina Sky Survey MPS 202363
2007 03 10.17979 10 06 52.53 +16 14 44.3 19.9 V 691 – Steward Observatory, Kitt Peak-Spacewatch MPS 202363
